Flag for U.S.A. Weather past 2 weeks in Leesburg, Virginia, U.S.A.

Now
37 °F

Passing clouds.


Feels Like: 29 °F
Forecast: 31 / 42 °F
Wind: 14 mph from Northwest

Location: Leesburg / Godfrey

Current Time: Dec 17, 2014 at 11:37:08 PM

Latest Report: Dec 17, 2014 at 10:55 PM


Visibility: 10 mi

Pressure: 30.07 "Hg

Humidity: 70%

Dew point: 28 °F

Location of LeesburgLocation

Historic Weather in Leesburg — Graph

°F

Leesburg temperature yesterday

Maximum temperature yesterday: 45 °F (at 5:15 PM)
Minimum temperature yesterday: 32 °F (at 3:35 AM)
Average temperature yesterday: 39 °F

Past Weeks' High & Low Weather Summary

 TemperatureHumidityPressure
High57 °F (Dec 15, 1:55 PM)100% (Dec 2, 10:15 PM)30.60 "Hg (Dec 2, 10:15 PM)
Low28 °F (Dec 13, 1:55 AM)33% (Dec 11, 6:55 PM)29.83 "Hg (Dec 10, 1:35 PM)
Average40 °F79%30.14 "Hg
* Reported Dec 2 10:15 PM — Dec 17 10:15 PM, Leesburg, Weather by CustomWeather, © 2014

Note: Actual official high and low records may vary slightly from our data, if they occured in-between our weather recording intervals... More about our weather records

Advertising

Leesburg weather history for previous 24 hours

 ConditionsComfort  
Time TempWeatherWind HumidityBarometerVisibility
10:15 PM
Dec 17
37 °FOvercast.9 mph70%30.06 "Hg10 mi
9:55 PM37 °FOvercast.N/A70%30.06 "Hg10 mi
9:35 PM37 °FOvercast.5 mph70%30.07 "Hg10 mi
9:15 PM37 °FOvercast.10 mph70%30.07 "Hg10 mi
8:55 PM37 °FPassing clouds.7 mph70%30.08 "Hg10 mi
8:35 PM37 °FPassing clouds.7 mph70%30.08 "Hg10 mi
8:15 PM39 °FPassing clouds.12 mph65%30.08 "Hg10 mi
7:35 PM39 °FPassing clouds.12 mph70%30.06 "Hg10 mi
7:15 PM41 °FClear.9 mph66%30.06 "Hg10 mi
6:55 PM41 °FClear.10 mph66%30.05 "Hg10 mi
6:15 PM41 °FClear.14 mph66%30.03 "Hg10 mi
5:55 PM41 °FClear.15 mph66%30.02 "Hg10 mi
5:15 PM43 °FClear.N/A61%30.02 "Hg10 mi
4:55 PM45 °FClear.18 mph57%30.02 "Hg10 mi
4:35 PM45 °FSunny.16 mph57%30.01 "Hg10 mi
4:15 PM46 °FSunny.N/A57%30.00 "Hg10 mi
3:55 PM46 °FSunny.N/A57%30.00 "Hg10 mi
3:35 PM46 °FSunny.N/A57%29.99 "Hg10 mi
3:15 PM48 °FSunny.N/A54%29.99 "Hg10 mi
2:55 PM50 °FSunny.N/A50%29.99 "Hg10 mi
2:15 PM50 °FSunny.N/A50%29.98 "Hg10 mi
1:55 PM50 °FSunny.N/A50%29.98 "Hg10 mi
1:15 PM52 °FScattered clouds.N/A50%29.99 "Hg10 mi
12:55 PM52 °FPartly sunny.N/A50%29.99 "Hg10 mi
12:35 PM52 °FScattered clouds.N/A50%30.00 "Hg10 mi
12:15 PM52 °FSunny.N/A54%29.99 "Hg10 mi
11:55 AM52 °FSunny.N/A50%30.00 "Hg10 mi
11:35 AM52 °FScattered clouds.N/A50%30.00 "Hg10 mi
11:15 AM52 °FSunny.N/A54%30.00 "Hg10 mi
10:55 AM52 °FSunny.N/A58%30.01 "Hg10 mi
10:35 AM52 °FSunny.N/A58%30.02 "Hg10 mi
10:15 AM50 °FSunny.N/A67%30.02 "Hg10 mi
9:55 AM50 °FSunny.N/A71%30.01 "Hg10 mi
9:15 AM50 °FScattered clouds.N/A71%30.01 "Hg10 mi
8:55 AM50 °FPartly sunny.N/A71%30.01 "Hg10 mi
8:35 AM48 °FOvercast.N/A76%30.00 "Hg10 mi
8:15 AM46 °FPartly sunny.N/A82%30.00 "Hg10 mi
7:55 AM46 °FOvercast.N/A82%29.99 "Hg10 mi
7:35 AM46 °FPartly sunny.N/A82%29.98 "Hg10 mi
7:15 AM46 °FOvercast.N/A82%29.97 "Hg10 mi
6:55 AM46 °FPassing clouds.N/A82%29.97 "Hg10 mi
6:35 AM46 °FClear.9 mph82%29.96 "Hg10 mi
6:15 AM46 °FClear.10 mph82%29.96 "Hg10 mi
5:55 AM46 °FClear.12 mph82%29.95 "Hg10 mi
5:15 AM46 °FClear.13 mph82%29.93 "Hg10 mi
4:55 AM46 °FClear.14 mph82%29.93 "Hg10 mi
4:35 AM45 °FPassing clouds.8 mph93%29.94 "Hg10 mi
4:15 AM45 °FPassing clouds.N/A100%29.93 "Hg10 mi
3:55 AM45 °FClear.10 mph100%29.93 "Hg10 mi
3:35 AM43 °FPassing clouds.12 mph100%29.93 "Hg10 mi
3:15 AM43 °FPassing clouds.N/A100%29.93 "Hg10 mi
2:55 AM43 °FPassing clouds.N/A100%29.93 "Hg10 mi
2:35 AM41 °FOvercast.N/A100%29.93 "Hg10 mi
2:15 AM39 °FPartly cloudy.N/A100%29.93 "Hg10 mi
1:55 AM37 °FFog.N/A100%29.93 "Hg1 mi
1:35 AM39 °FFog.No wind100%29.93 "Hg0 mi
1:15 AM41 °FFog.No wind100%29.92 "Hg0 mi
12:55 AM41 °FThundershowers. Fog.3 mph100%29.91 "Hg0 mi
12:35 AM41 °FFog.N/A100%29.91 "Hg0 mi
12:15 AM41 °FFog.No wind100%29.92 "Hg0 mi
11:55 PM
Dec 16
41 °FFog.No wind100%29.92 "Hg0 mi
11:35 PM41 °FFog.N/A100%29.92 "Hg0 mi
11:15 PM41 °FFog.No wind100%29.92 "Hg1 mi
Weather by CustomWeather, © 2014

See weather overviewHow to use our weather pages